CW9197 Weather Reports


time (UTC)temp
C
wind
direction
speed
KPH
gust
KPH
rain 1hr
cm
rain 24hr
cm
rain mn
cm
humidity
%
barometer
mb
20260906075505 8 307 9.7 20.9 0.00 0.00 0.00 85 1003.1
20260906074504 8 312 4.8 11.3 0.00 0.00 0.00 85 1002.9
20260906073504 8 298 8.0 17.7 0.00 0.00 0.00 85 1002.8
20260906072504 8 296 11.3 25.7 0.00 0.00 0.00 84 1002.6
20260906071525 8 308 9.7 27.4 0.00 0.00 0.00 85 1002.6
20260906070505 8 312 8.0 17.7 0.00 0.00 0.00 85 1002.5
20260906065504 8 300 8.0 19.3 0.00 0.00 0.00 85 1002.3
20260906064524 8 314 9.7 27.4 0.00 0.00 0.00 85 1002.2
20260906063504 8 299 8.0 19.3 0.00 0.00 0.00 86 1002.0
20260906062503 8 312 9.7 20.9 0.00 0.00 0.00 86 1002.0
20260906061503 8 292 8.0 22.5 0.00 0.00 0.00 88 1001.9
20260906060503 8 302 6.4 27.4 0.00 0.00 0.00 90 1001.9
20260906055523 7 292 6.4 12.9 0.00 0.00 0.00 90 1001.8
20260906054505 7 287 6.4 14.5 0.00 0.00 0.00 91 1001.8
20260906053504 7 295 6.4 14.5 0.00 0.00 0.00 90 1001.7
20260906052524 7 295 4.8 12.9 0.00 0.00 0.00 90 1001.7
20260906051504 7 314 6.4 9.7 0.00 0.00 0.00 89 1001.6
20260906050504 7 314 6.4 14.5 0.00 0.00 0.00 90 1001.7
20260906045503 7 312 4.8 12.9 0.00 0.00 0.00 89 1001.7
20260906044503 7 315 6.4 17.7 0.00 0.00 0.00 89 1001.6
20260906043503 7 309 6.4 12.9 0.00 0.00 0.00 90 1001.5
20260906042502 7 302 8.0 24.1 0.00 0.00 0.00 91 1001.5
20260906041504 7 313 6.4 16.1 0.00 0.00 0.00 91 1001.4
20260906040524 6 306 6.4 14.5 0.00 0.00 0.00 92 1001.4
20260906035504 6 310 6.4 14.5 0.00 0.00 0.00 91 1001.3
20260906034504 6 305 8.0 20.9 0.00 0.00 0.00 91 1001.2
20260906033504 6 295 6.4 16.1 0.00 0.00 0.00 91 1001.1
20260906032503 6 318 8.0 25.7 0.00 0.00 0.00 90 1001.0
20260906031503 7 308 9.7 19.3 0.00 0.00 0.00 91 1001.0
20260906030503 7 312 6.4 20.9 0.00 0.00 0.00 91 1000.9
20260906025503 7 311 6.4 19.3 0.00 0.00 0.00 93 1000.8
20260906024505 7 286 6.4 17.7 0.00 0.00 0.00 94 1000.8
20260906023504 7 304 4.8 12.9 0.00 0.00 0.00 93 1000.8
20260906022504 7 322 6.4 19.3 0.00 0.00 0.00 93 1000.7
20260906021504 7 313 6.4 16.1 0.00 0.00 0.00 94 1000.7
20260906020504 7 297 6.4 19.3 0.00 0.00 0.00 93 1000.7
20260906015523 7 317 8.0 17.7 0.00 0.00 0.00 94 1000.6
20260906014503 8 316 4.8 11.3 0.00 0.00 0.00 94 1000.5
20260906013503 8 299 4.8 14.5 0.00 0.00 0.00 95 1000.4
20260906012503 8 321 6.4 19.3 0.00 0.00 0.00 95 1000.3
20260906011504 8 297 4.8 12.9 0.00 0.00 0.00 95 1000.2
20260906010504 8 303 6.4 16.1 0.00 0.00 0.00 95 1000.1
20260906005504 8 293 8.0 29.0 0.00 0.00 0.00 96 1000.1
20260906004504 8 311 6.4 14.5 0.00 0.00 0.00 96 1000.0
20260906003504 8 297 8.0 16.1 0.00 0.00 0.00 96 1000.0
20260906002504 8 299 6.4 14.5 0.00 0.00 0.00 94 999.8
20260906001503 8 316 6.4 19.3 0.00 0.00 0.00 94 999.7
20260906000503 8 323 8.0 17.7 0.00 0.00 0.00 94 999.5
20260905235503 8 297 6.4 19.3 0.00 0.00 0.00 96 999.5
20260905234505 8 316 4.8 12.9 0.00 0.00 0.00 96 999.4
20260905233505 9 296 4.8 11.3 0.00 0.00 0.00 96 999.4
20260905232505 9 297 8.0 20.9 0.00 0.00 0.00 97 999.4
20260905231504 9 289 6.4 14.5 0.00 0.00 0.00 98 999.3
20260905230504 9 275 4.8 11.3 0.00 0.00 0.00 98 999.3
20260905225504 8 271 3.2 8.0 0.00 0.00 0.00 98 999.2
20260905224503 8 276 4.8 9.7 0.00 0.00 0.00 97 999.1
20260905223503 8 297 4.8 11.3 0.00 0.00 0.00 97 999.1
20260905222503 8 289 4.8 11.3 0.00 0.00 0.00 97 999.0
20260905221525 8 303 4.8 8.0 0.00 0.00 0.00 96 998.9
20260905220524 9 308 4.8 9.7 0.00 0.00 0.00 97 998.9
20260905215524 9 315 3.2 14.5 0.00 0.00 0.00 97 998.8
20260905214504 9 320 4.8 8.0 0.00 0.00 0.00 97 998.8
20260905213504 9 328 3.2 9.7 0.00 0.00 0.00 97 998.8
20260905212503 9 325 4.8 9.7 0.00 0.00 0.00 98 998.7
20260905211503 9 288 4.8 9.7 0.00 0.00 0.00 98 998.6
20260905210503 9 291 3.2 6.4 0.00 0.00 0.00 98 998.5
20260905205503 9 294 4.8 11.3 0.00 0.00 0.00 98 998.4
20260905204507 9 307 4.8 11.3 0.00 0.00 0.00 98 998.4
20260905203525 9 297 4.8 9.7 0.00 0.00 0.00 98 998.3
20260905202504 9 318 4.8 12.9 0.00 0.00 0.00 98 998.2
20260905201504 9 309 4.8 9.7 0.00 0.00 0.00 98 998.2
20260905200504 9 291 4.8 12.9 0.00 0.00 0.00 98 998.1
20260905195504 9 287 4.8 8.0 0.00 0.00 0.00 98 998.1
20260905194504 9 281 4.8 8.0 0.00 0.00 0.00 97 997.9
20260905193503 9 296 4.8 12.9 0.00 0.00 0.00 97 997.9
20260905192503 10 293 4.8 9.7 0.00 0.00 0.00 97 997.9
20260905191503 10 301 4.8 9.7 0.00 0.00 0.00 97 997.8
20260905190503 10 284 4.8 12.9 0.00 0.00 0.00 97 997.8
20260905185504 10 305 4.8 12.9 0.00 0.00 0.00 97 997.8
20260905184504 10 304 4.8 9.7 0.00 0.00 0.00 97 997.8
20260905183504 10 291 4.8 12.9 0.00 0.00 0.00 97 997.7
20260905182504 10 287 6.4 16.1 0.00 0.00 0.00 97 997.7
20260905181504 10 314 4.8 9.7 0.00 0.00 0.00 97 997.6
20260905180503 10 305 4.8 11.3 0.00 0.00 0.00 97 997.6
20260905175523 10 314 3.2 6.4 0.00 0.00 0.00 97 997.6
20260905174503 10 323 3.2 8.0 0.00 0.00 0.00 97 997.5
20260905173505 10 318 3.2 6.4 0.00 0.00 0.00 97 997.4
20260905172505 10 280 3.2 4.8 0.00 0.00 0.00 97 997.3
20260905171504 10 309 3.2 9.7 0.00 0.00 0.00 96 997.2
20260905170504 10 312 3.2 9.7 0.00 0.00 0.00 97 997.1
20260905165504 11 303 3.2 8.0 0.00 0.00 0.00 97 997.0
20260905164504 11 297 1.6 6.4 0.00 0.00 0.00 97 996.9
20260905163504 11 301 3.2 6.4 0.00 0.00 0.00 97 996.9
20260905162503 12 289 3.2 9.7 0.00 0.00 0.00 97 996.8
20260905161505 12 298 3.2 8.0 0.00 0.00 0.00 97 996.7
20260905160502 12 297 3.2 6.4 0.00 0.00 0.00 97 996.6
20260905155504 12 255 3.2 6.4 0.00 0.00 0.00 97 996.6
20260905154504 12 277 3.2 6.4 0.00 0.00 0.00 97 996.5
20260905153504 12 266 4.8 11.3 0.00 0.00 0.00 97 996.4
20260905152504 12 300 3.2 6.4 0.00 0.00 0.00 97 996.4
20260905151503 12 275 3.2 6.4 0.00 0.00 0.00 97 996.3
20260905150504 12 269 4.8 11.3 0.00 0.00 0.00 97 996.3
20260905145503 12 212 1.6 4.8 0.00 0.00 0.00 97 996.3
20260905144503 12 280 4.8 9.7 0.00 0.00 0.00 97 996.3
20260905143503 12 240 1.6 3.2 0.00 0.00 0.00 97 996.3
20260905142505 11 266 3.2 6.4 0.00 0.00 0.00 97 996.2
20260905141504 11 271 1.6 4.8 0.00 0.00 0.00 97 996.1
20260905140504 11 310 3.2 6.4 0.00 0.00 0.00 96 996.1
20260905135525 11 321 4.8 9.7 0.00 0.00 0.00 96 996.0
20260905134504 11 342 6.4 11.3 0.00 0.00 0.00 96 996.0
20260905133504 11 339 4.8 9.7 0.00 0.00 0.00 96 996.0
20260905132504 11 338 4.8 8.0 0.00 0.00 0.00 94 996.0
20260905131523 12 349 6.4 14.5 0.00 0.00 0.00 91 995.9
20260905130523 15 327 4.8 9.7 0.00 0.00 0.00 83 995.7
20260905125503 15 263 6.4 12.9 0.00 0.00 0.00 83 995.6
20260905124504 15 270 4.8 14.5 0.00 0.00 0.00 78 995.6
20260905123504 15 239 3.2 6.4 0.00 0.00 0.00 79 995.6
20260905122504 15 260 6.4 11.3 0.00 0.00 0.00 78 995.5
20260905121545 15 284 6.4 12.9 0.00 0.00 0.00 78 995.4
20260905120504 15 263 4.8 12.9 0.00 0.00 0.00 79 995.4
20260905115504 15 259 4.8 9.7 0.00 0.00 0.00 77 995.4
20260905114504 15 215 3.2 8.0 0.00 0.00 0.00 78 995.4
20260905113503 15 266 4.8 11.3 0.00 0.00 0.00 77 995.4
20260905112503 15 217 4.8 8.0 0.00 0.00 0.00 78 995.3
20260905111523 15 239 4.8 14.5 0.00 0.00 0.00 76 995.3
20260905110505 15 264 4.8 12.9 0.00 0.00 0.00 78 995.3
20260905105504 15 229 4.8 9.7 0.00 0.00 0.00 79 995.2
20260905104504 15 271 4.8 12.9 0.00 0.00 0.00 77 995.2
20260905103504 15 255 4.8 12.9 0.00 0.00 0.00 78 995.2
20260905102504 15 250 6.4 16.1 0.00 0.00 0.00 78 995.1
20260905101503 15 225 4.8 11.3 0.00 0.00 0.00 79 995.0
20260905100503 15 284 6.4 14.5 0.00 0.00 0.00 78 995.0
20260905095505 15 232 4.8 8.0 0.00 0.00 0.00 78 994.9
20260905094504 15 237 4.8 9.7 0.00 0.00 0.00 78 994.9
20260905093504 15 246 3.2 8.0 0.00 0.00 0.00 79 994.9
20260905092504 15 256 4.8 12.9 0.00 0.00 0.00 80 994.8
20260905091503 14 265 4.8 11.3 0.00 0.00 0.00 80 994.9
20260905090503 14 270 4.8 9.7 0.00 0.00 0.00 81 994.9
20260905085503 14 281 6.4 12.9 0.00 0.00 0.00 79 994.9
20260905084505 14 283 6.4 12.9 0.00 0.00 0.00 80 994.9
20260905083505 14 272 6.4 11.3 0.00 0.00 0.00 81 994.9
20260905082504 14 263 4.8 12.9 0.00 0.00 0.00 81 994.9
20260905081524 13 267 4.8 8.0 0.00 0.00 0.00 83 994.8
20260905080523 14 278 3.2 8.0 0.00 0.00 0.00 82 994.8